Temperature
17 17 17 17 17 17 17 17 17 17 17 17 17 17 17 17 17 17 17 18 17 17 17 17 17 17 17 16 16 16 16 16 16 16 16 16 16 16 16 16 16 16 16
17 17 17 17 17 17 17 17 17 17 17 17 17 17 17 17 17 17 17 17 17 17 17 17 17 17 17 16 16 16 16 16 16 16 16 16 16 16 16 16 16 16 16
17 17 17 17 17 17 17 17 17 17 17 17 17 17 17 17 17 17 17 17 17 17 17 17 17 17 17 17 16 16 16 16 16 16 16 16 16 16 16 16 16 16 16
18 18 17 17 17 17 17 17 17 17 17 17 17 17 17 17 17 17 17 17 17 17 17 17 17 17 17 17 16 16 16 16 16 16 16 16 16 16 16 16 16 15 15
18 18 18 18 17 17 17 17 17 17 17 17 18 17 17 17 17 17 17 17 17 17 17 17 17 17 17 17 16 16 16 16 16 16 16 16 16 16 16 16 16 15 15
18 18 18 18 17 17 17 17 17 17 17 17 18 18 18 18 18 18 17 17 17 17 17 17 17 17 17 17 17 16 16 16 16 16 16 16 16 16 16 16 16 15 15
18 18 18 18 18 17 17 17 17 17 17 17 18 18 18 18 18 18 18 18 18 17 17 17 17 17 17 17 17 17 17 17 16 16 16 16 16 16 16 16 16 16 16
18 18 18 18 18 17 17 17 17 17 18 17 18 18 19 19 18 18 18 18 18 18 18 17 17 17 17 17 17 17 17 17 17 16 16 16 16 16 16 16 16 16 16
18 18 18 18 17 17 17 17 17 17 17 18 18 18 19 20 20 19 18 18 18 18 18 18 17 17 17 17 17 17 17 17 17 16 16 16 16 16 16 16 16 16 16
18 18 18 18 18 17 17 17 17 17 17 18 18 17 18 18 19 19 19 19 18 18 18 18 18 17 17 17 17 17 17 17 17 17 16 16 16 16 16 16 16 16 16
18 18 18 18 18 18 17 17 17 17 17 17 18 18 17 17 18 18 19 19 18 18 18 18 18 18 17 17 17 17 17 17 17 17 17 16 16 16 16 16 16 16 16
18 18 18 18 18 18 17 17 17 17 17 17 17 17 17 18 18 18 18 18 18 18 18 18 18 17 17 17 17 17 17 17 17 17 17 17 17 16 16 16 16 16 16
18 18 18 18 18 18 18 18 17 17 17 17 17 17 17 17 18 18 18 18 18 18 18 18 17 17 17 17 17 17 17 17 17 17 17 17 16 16 16 16 16 16 16
18 18 18 18 18 17 17 17 17 17 17 17 17 17 17 17 17 17 17 17 17 18 18 18 17 17 17 17 17 17 17 17 17 17 16 16 16 16 16 16 16 16 16
17 17 17 17 17 17 17 17 17 17 17 17 17 17 17 17 17 17 17 17 17 17 17 17 17 17 17 17 16 16 16 16 17 16 16 16 16 16 16 16 16 16 15
18 17 17 17 17 17 17 17 17 17 17 17 17 17 17 17 17 17 17 17 17 16 16 17 17 17 16 16 16 16 16 16 16 16 16 16 16 16 15 15 15 15 15
17 17 17 17 17 17 17 17 17 16 16 16 16 16 16 16 16 16 16 16 16 16 16 16 16 16 16 16 16 16 16 15 16 16 16 15 15 15 15 15 15 15 15
17 17 17 17 17 16 17 16 16 16 16 16 16 16 16 16 16 16 16 16 16 16 15 15 16 15 15 15 15 15 15 15 15 15 15 15 15 15 15 14 14 14 14
17 17 17 16 16 16 16 16 16 16 16 16 16 16 16 15 15 15 15 15 15 15 15 15 15 15 15 15 15 15 15 15 14 14 14 14 14 14 14 14 14 14 14
17 16 16 16 16 16 16 16 16 16 16 16 15 15 15 15 15 15 15 15 15 15 15 15 14 14 14 14 14 14 14 14 14 13 13 13 13 13 13 13 13 13 13
16 16 16 16 16 16 16 16 15 15 15 15 15 15 15 15 15 14 14 14 14 14 14 14 14 14 14 14 13 13 13 13 13 13 13 13 12 12 12 12 12 12 12
16 16 16 16 15 15 15 15 15 15 15 15 14 14 14 14 14 14 14 14 14 14 13 13 13 13 13 13 13 13 13 13 12 12 12 12 12 12 12 11 11 11 11
16 15 15 15 15 15 15 15 15 14 14 14 14 14 13 13 13 13 13 13 13 13 13 13 12 12 12 12 12 12 12 12 11 11 11 11 11 11 11 11 11 10 10
15 15 15 15 14 14 14 14 14 14 14 13 13 13 13 13 13 13 12 12 12 12 12 12 12 11 11 12 11 11 11 11 11 11 10 11 10 10 10 10 10 10 10
15 14 14 14 14 14 14 14 14 13 13 13 12 12 12 12 12 12 12 12 11 11 11 11 11 11 11 11 11 11 11 11 11 11 10 10 10 10 10 9 9 9 9
14 14 14 14 14 13 13 13 13 13 12 12 12 12 12 12 11 11 11 11 11 11 10 10 10 10 10 10 10 10 10 10 10 10 9 9 9 9 9 9 9 9 9
Wind_Speed
4 4 3 3 4 4 5 4 3 3 3 4 3 3 3 1 2 2 5 10 9 9 9 9 9 9 9 9 9 9 9 9 9 9 8 8 8 8 8 8 7 7 7
4 4 5 4 4 4 4 4 4 4 4 3 3 3 4 3 3 3 3 9 12 11 11 10 10 10 10 10 10 10 10 10 10 9 9 9 9 9 9 9 8 8 8
5 5 4 5 4 4 4 5 5 5 4 4 4 4 4 4 4 4 5 4 8 13 13 12 12 12 12 12 12 12 11 11 11 11 11 11 11 10 10 10 10 10 9
7 6 5 5 5 6 5 4 5 5 4 5 4 4 4 4 6 6 7 7 6 7 13 16 14 14 14 13 13 13 13 13 13 12 13 12 12 12 12 12 12 12 12
9 8 6 5 6 5 5 5 5 5 5 5 5 5 6 5 5 7 7 8 8 7 7 14 16 16 15 15 15 14 14 14 14 14 14 14 14 13 14 14 13 13 13
10 9 7 7 7 6 5 5 4 5 5 6 6 5 5 6 7 6 7 8 8 10 10 9 11 15 18 17 16 16 15 15 16 16 16 16 16 16 16 16 16 15 15
10 9 8 7 7 7 7 7 6 7 7 6 6 6 6 8 8 7 7 7 8 9 9 9 10 9 11 19 19 17 16 16 17 17 18 18 18 18 18 18 17 17 17
11 10 9 8 8 7 8 8 8 7 6 6 6 5 5 6 7 8 7 8 7 7 9 10 10 9 10 9 13 19 18 17 17 17 18 19 19 20 19 19 18 18 19
13 11 10 10 8 9 8 9 9 9 7 7 7 6 5 4 3 5 6 6 6 6 7 7 10 10 11 10 9 15 18 18 17 17 17 18 19 20 20 19 19 18 19
12 12 12 11 10 9 9 10 10 9 9 8 6 7 8 6 5 3 5 6 6 6 7 6 7 8 10 9 9 8 13 16 17 17 17 18 19 20 20 20 19 19 19
11 12 11 11 10 9 10 10 9 10 9 9 8 6 8 7 9 7 6 4 4 5 5 6 5 6 7 8 8 8 11 14 16 17 17 17 18 18 19 20 20 20 20
8 10 10 9 10 9 10 10 10 11 10 10 8 7 7 6 7 8 8 7 6 5 5 4 5 5 6 6 7 5 8 12 13 15 15 15 16 17 18 19 19 18 18
7 8 9 8 9 9 10 10 9 10 10 10 9 8 8 9 8 8 8 7 7 6 5 5 5 4 5 6 5 6 7 10 11 13 14 14 14 15 15 15 15 15 16
7 7 8 8 9 10 10 9 9 10 9 10 10 10 8 8 8 8 8 7 7 7 6 6 3 4 4 4 3 5 6 8 10 11 12 12 13 13 12 13 14 14 14
5 6 7 8 8 9 9 9 8 9 8 9 9 9 8 7 7 7 7 7 7 8 7 5 4 3 3 3 2 4 5 4 7 8 9 10 11 11 11 12 12 13 13
4 5 6 7 7 7 7 7 8 7 7 8 7 8 8 7 6 6 6 6 6 7 7 5 3 3 2 3 2 3 4 2 4 5 6 7 8 8 8 9 9 10 11
3 4 5 5 5 6 6 6 7 7 7 8 8 8 8 7 6 5 5 5 6 6 7 6 4 3 2 4 3 3 4 4 3 4 5 5 5 6 7 7 7 8 8
2 2 2 3 4 4 4 5 6 5 6 6 6 6 6 5 6 5 5 5 5 5 6 6 4 3 3 3 3 4 3 3 2 2 4 4 4 4 4 4 3 3 4
0 0 0 1 2 2 2 2 2 3 3 3 4 4 4 4 4 4 4 4 4 4 4 5 4 3 2 2 2 2 2 2 2 1 2 3 3 3 3 3 2 1 2
2 2 2 2 2 2 1 0 0 1 1 1 1 1 1 2 3 3 3 3 3 3 3 4 4 3 2 2 2 2 2 1 2 2 2 2 3 5 5 4 3 2 1
4 4 4 4 3 3 2 2 1 1 2 2 2 2 2 3 4 3 1 1 1 2 2 2 2 2 2 2 2 3 2 1 1 3 3 3 2 2 3 5 5 5 4
5 5 5 5 5 5 8 7 4 4 4 4 4 4 4 5 6 6 7 7 5 2 2 1 1 1 2 3 3 3 3 2 2 4 4 4 5 5 5 6 9 9 7
6 6 6 6 7 8 9 8 7 6 6 6 6 5 4 5 5 5 6 7 7 7 5 3 3 3 3 3 3 3 3 3 3 3 4 4 4 4 4 8 10 10 9
6 7 7 7 7 9 10 9 8 8 9 9 8 7 6 5 5 4 5 6 7 7 6 5 5 5 5 5 3 2 1 1 1 4 5 3 3 4 4 5 9 9 8
7 7 7 8 8 8 10 8 6 8 9 10 10 10 8 8 9 6 6 7 7 7 10 11 10 9 10 10 8 4 4 3 3 3 5 4 3 3 2 2 5 7 7
8 8 8 9 9 9 10 9 6 7 8 8 9 10 13 11 12 10 7 7 7 6 6 7 7 7 8 9 9 7 5 4 3 3 4 4 3 3 2 1 1 2 3
Wind_Direction
181 170 170 186 189 174 179 197 200 186 201 201 209 199 215 207 185 203 149 167 188 197 199 198 198 200 200 198 197 196 195 195 194 191 191 192 195 194 191 188 190 191 191
190 188 188 195 200 201 199 200 203 203 218 218 219 213 230 219 198 225 202 174 191 203 208 208 206 208 209 209 209 209 207 205 203 200 198 202 204 205 203 203 203 202 203
201 209 207 203 207 200 191 210 215 218 218 217 217 224 234 242 226 222 230 215 194 200 208 212 213 214 215 217 218 217 215 215 212 210 207 209 211 212 213 215 214 212 213
215 222 224 218 207 215 211 209 221 221 224 234 230 238 233 226 233 227 224 222 225 211 201 206 214 218 220 223 224 223 220 220 219 216 215 216 217 218 221 224 224 223 221
217 224 231 231 225 224 224 233 212 231 231 237 237 229 238 237 233 232 231 232 226 229 220 193 207 218 222 226 228 228 225 224 223 221 221 220 221 223 225 228 228 228 227
220 227 227 225 231 229 229 238 238 237 247 246 254 246 240 241 241 235 237 236 229 226 226 217 209 215 217 224 228 231 230 228 226 225 225 224 225 225 228 229 230 230 231
224 228 243 226 231 232 233 231 234 232 238 242 249 249 239 237 240 239 236 240 232 230 231 226 228 230 214 214 222 227 230 231 229 228 228 227 228 229 230 231 231 231 233
227 226 230 233 230 232 232 233 232 241 239 228 243 253 251 232 222 230 226 228 235 231 229 226 225 228 241 226 214 217 226 232 234 232 229 229 230 231 232 232 233 234 235
224 230 228 231 231 233 232 231 230 235 241 236 236 248 261 259 248 210 218 229 231 235 238 234 227 226 231 237 229 210 218 228 234 237 234 231 231 231 231 232 233 235 237
227 226 230 229 230 234 233 233 230 234 237 242 232 235 252 279 274 255 221 214 219 230 241 245 241 229 229 234 233 232 216 225 232 237 240 238 236 234 232 232 234 236 236
230 228 226 227 227 235 236 239 238 236 234 241 243 237 239 244 248 260 262 252 231 228 229 236 247 247 236 235 238 235 217 225 232 235 240 243 242 239 237 237 238 239 239
230 226 226 228 230 233 234 236 239 235 238 244 246 244 242 244 243 246 254 258 260 253 240 242 245 244 240 238 236 228 220 227 233 236 238 241 244 244 241 241 242 243 242
230 227 229 230 235 235 235 234 234 238 237 240 241 244 247 249 255 255 258 262 266 266 253 249 243 242 241 238 235 213 227 232 235 238 240 241 242 244 244 242 241 242 241
241 234 230 231 234 235 234 230 233 234 236 240 242 245 251 252 251 251 255 260 264 263 253 253 251 249 253 247 242 221 241 227 233 237 240 242 242 239 240 242 243 241 241
242 232 230 236 238 236 235 234 235 236 236 239 242 241 243 251 253 253 251 253 257 265 267 258 249 252 253 255 263 258 264 227 224 232 235 237 239 237 237 241 242 241 240
245 234 230 236 240 238 232 232 240 237 236 241 245 248 244 246 243 246 246 246 247 253 264 274 263 279 288 270 211 256 259 199 208 223 226 229 231 232 235 238 238 239 239
247 241 232 235 236 236 234 233 238 237 237 241 241 239 238 245 245 243 241 240 242 240 250 265 265 275 274 286 297 278 265 254 226 205 211 214 223 229 233 235 236 234 235
266 253 236 229 233 239 240 239 237 236 239 245 245 244 247 243 239 243 239 239 243 247 247 258 268 264 256 266 280 283 286 275 263 173 194 202 213 221 223 224 223 228 233
25 340 344 270 268 258 243 240 232 231 235 245 248 246 251 253 247 239 238 242 247 248 248 250 260 266 265 274 274 279 295 315 285 163 162 173 178 181 174 170 167 188 227
82 66 65 42 33 40 62 90 156 206 217 224 235 245 283 269 259 246 237 242 246 253 251 254 262 268 276 300 289 281 296 311 317 350 23 72 111 134 125 111 106 110 111
83 73 70 64 63 65 56 54 78 97 94 89 76 65 51 49 38 17 343 330 291 272 266 268 280 299 329 340 330 329 327 343 35 23 14 21 47 59 99 98 77 64 61
84 76 73 69 59 53 46 40 44 71 73 74 68 68 71 66 72 72 59 52 35 6 333 315 330 358 2 350 346 344 350 353 11 23 5 19 31 35 42 58 64 65 59
91 82 75 72 66 54 48 48 51 69 68 63 60 59 59 58 62 82 86 84 63 47 33 23 39 21 17 6 356 4 21 10 7 10 2 16 27 34 43 70 76 69 63
91 86 79 75 74 59 50 55 64 75 72 66 61 58 60 58 52 61 77 73 64 50 45 51 52 38 35 15 353 354 15 50 78 46 8 1 9 15 35 69 85 80 72
89 86 82 78 76 63 43 42 58 85 79 70 61 52 53 62 38 40 79 78 74 72 71 73 72 70 63 50 30 29 28 19 21 31 16 356 352 3 16 62 96 105 96
93 90 81 74 73 67 47 41 46 89 87 82 73 63 54 53 42 38 69 75 75 67 68 75 76 73 65 61 54 40 25 18 9 19 20 349 342 340 340 25 44 111 110
Height
1578 1579 1579 1580 1582 1583 1584 1584 1585 1585 1586 1587 1588 1588 1588 1589 1589 1590 1589 1588 1588 1588 1589 1589 1590 1590 1591 1592 1593 1593 1594 1595 1596 1596 1597 1598 1598 1599 1600 1600 1601 1602 1602
1577 1578 1579 1580 1581 1583 1584 1584 1585 1585 1586 1587 1587 1588 1588 1589 1588 1588 1589 1588 1587 1588 1588 1588 1589 1589 1590 1591 1592 1592 1593 1594 1595 1595 1596 1597 1598 1598 1599 1600 1600 1601 1601
1576 1577 1579 1579 1581 1582 1582 1583 1584 1585 1585 1586 1586 1587 1587 1587 1588 1587 1588 1588 1587 1587 1587 1587 1588 1588 1589 1589 1590 1591 1592 1592 1593 1594 1595 1595 1596 1597 1598 1598 1599 1599 1600
1575 1576 1578 1579 1579 1580 1581 1582 1583 1584 1585 1585 1585 1586 1586 1586 1586 1586 1586 1586 1587 1587 1586 1586 1586 1587 1587 1587 1588 1589 1590 1591 1591 1592 1593 1593 1594 1595 1596 1596 1597 1598 1598
1573 1574 1576 1577 1578 1579 1580 1581 1582 1582 1583 1583 1584 1584 1584 1584 1584 1584 1584 1585 1585 1585 1585 1584 1584 1585 1585 1585 1586 1587 1587 1588 1589 1590 1590 1591 1592 1593 1593 1594 1595 1595 1596
1571 1572 1574 1574 1576 1577 1577 1578 1579 1579 1581 1581 1582 1583 1582 1582 1582 1582 1582 1583 1582 1583 1583 1583 1583 1583 1583 1583 1583 1584 1585 1586 1586 1587 1588 1588 1589 1590 1591 1591 1592 1593 1593
1568 1569 1571 1572 1573 1574 1575 1576 1577 1578 1579 1579 1580 1580 1580 1579 1579 1579 1579 1580 1580 1581 1581 1581 1581 1581 1581 1580 1581 1581 1582 1583 1583 1584 1585 1585 1586 1587 1588 1588 1589 1590 1590
1565 1566 1567 1568 1570 1571 1571 1573 1574 1576 1576 1577 1578 1578 1578 1578 1576 1576 1576 1576 1577 1578 1578 1578 1578 1578 1578 1579 1578 1578 1579 1579 1580 1581 1581 1582 1583 1584 1584 1585 1586 1586 1587
1561 1562 1564 1565 1566 1567 1568 1569 1571 1572 1574 1574 1575 1576 1575 1574 1574 1574 1574 1574 1574 1574 1575 1575 1575 1575 1575 1575 1576 1575 1576 1576 1577 1577 1578 1579 1579 1580 1581 1581 1582 1582 1583
1557 1558 1560 1561 1562 1564 1565 1566 1568 1569 1570 1571 1571 1572 1573 1573 1573 1572 1572 1571 1571 1571 1571 1572 1572 1572 1571 1572 1572 1572 1572 1573 1573 1574 1574 1575 1575 1576 1577 1577 1578 1578 1579
1553 1554 1555 1557 1558 1559 1561 1563 1564 1565 1566 1567 1568 1569 1569 1569 1570 1570 1569 1569 1569 1569 1569 1568 1568 1568 1568 1568 1568 1568 1569 1569 1570 1570 1571 1571 1571 1572 1572 1573 1573 1574 1575
1548 1549 1550 1552 1553 1555 1556 1558 1560 1561 1562 1563 1564 1564 1565 1566 1566 1566 1565 1565 1566 1566 1566 1565 1565 1565 1565 1565 1565 1565 1565 1565 1565 1566 1566 1567 1567 1567 1568 1568 1568 1569 1569
1544 1544 1546 1547 1548 1550 1552 1553 1555 1556 1557 1558 1559 1560 1560 1561 1562 1562 1562 1562 1562 1562 1562 1562 1562 1561 1561 1561 1561 1561 1561 1561 1561 1562 1562 1562 1562 1563 1563 1564 1564 1564 1565
1540 1541 1541 1543 1544 1545 1547 1548 1550 1551 1552 1553 1554 1555 1555 1556 1557 1557 1558 1558 1558 1558 1558 1558 1558 1558 1558 1558 1557 1557 1557 1557 1557 1557 1557 1558 1558 1558 1558 1559 1559 1559 1560
1536 1537 1537 1539 1540 1541 1542 1543 1545 1546 1547 1548 1549 1550 1550 1551 1552 1552 1553 1554 1555 1554 1553 1553 1554 1554 1554 1554 1553 1553 1553 1553 1553 1553 1553 1553 1553 1553 1553 1553 1554 1554 1554
1533 1533 1534 1535 1536 1538 1538 1539 1540 1541 1542 1543 1544 1545 1545 1546 1547 1547 1548 1549 1549 1550 1549 1550 1550 1550 1550 1550 1549 1549 1549 1548 1548 1548 1548 1548 1548 1549 1548 1548 1548 1549 1549
1531 1531 1532 1532 1533 1534 1535 1536 1536 1537 1538 1539 1539 1540 1540 1541 1542 1543 1543 1544 1545 1545 1545 1546 1546 1546 1546 1546 1546 1545 1545 1545 1544 1543 1543 1543 1543 1543 1543 1543 1543 1543 1543
1530 1530 1530 1530 1531 1531 1532 1533 1533 1533 1534 1535 1536 1536 1536 1537 1537 1538 1539 1540 1541 1541 1542 1542 1542 1543 1542 1542 1542 1541 1541 1541 1540 1539 1539 1538 1538 1538 1538 1538 1538 1538 1538
1529 1529 1528 1529 1529 1529 1529 1530 1530 1530 1530 1531 1532 1533 1533 1534 1534 1535 1536 1537 1537 1538 1538 1538 1538 1539 1539 1538 1538 1538 1537 1536 1536 1535 1534 1533 1533 1532 1532 1532 1532 1532 1533
1528 1528 1528 1528 1528 1528 1528 1528 1528 1528 1528 1529 1529 1530 1530 1531 1532 1532 1533 1534 1534 1535 1535 1535 1535 1535 1535 1535 1534 1534 1533 1533 1532 1532 1530 1530 1528 1528 1527 1527 1528 1528 1528
1528 1528 1527 1527 1527 1527 1527 1527 1527 1527 1527 1527 1527 1528 1528 1529 1530 1530 1531 1531 1532 1532 1532 1532 1533 1533 1532 1531 1531 1531 1530 1530 1529 1529 1528 1527 1526 1525 1524 1523 1523 1524 1524
1528 1528 1528 1527 1527 1527 1527 1527 1527 1527 1526 1526 1527 1527 1528 1528 1528 1528 1529 1529 1530 1530 1530 1531 1531 1530 1530 1529 1529 1529 1528 1527 1527 1527 1526 1525 1524 1523 1522 1521 1520 1520 1520
1528 1528 1528 1528 1528 1528 1528 1528 1527 1527 1527 1527 1527 1527 1528 1528 1528 1528 1528 1528 1528 1528 1529 1529 1529 1528 1528 1527 1527 1527 1526 1526 1525 1525 1524 1523 1523 1522 1521 1520 1519 1519 1518
1529 1529 1529 1529 1529 1529 1529 1529 1529 1528 1528 1528 1528 1528 1528 1527 1527 1527 1528 1528 1527 1527 1527 1527 1527 1527 1527 1526 1526 1526 1525 1525 1524 1524 1523 1523 1522 1522 1521 1519 1518 1517 1516
1530 1530 1530 1530 1530 1531 1531 1531 1531 1530 1530 1530 1530 1529 1529 1528 1528 1528 1528 1528 1528 1528 1528 1527 1526 1526 1526 1525 1525 1525 1524 1524 1524 1524 1523 1523 1522 1521 1520 1519 1518 1517 1516
1531 1531 1531 1532 1532 1532 1533 1533 1533 1533 1532 1532 1531 1531 1530 1530 1530 1529 1529 1529 1529 1529 1529 1528 1527 1527 1527 1526 1525 1525 1525 1525 1525 1525 1523 1523 1522 1522 1521 1520 1519 1517 1516